Location: Minneapolis
(45.0000°N, 93.0000°W)
Time: 21:56:49
(UTC-05:00)

OTV 5 (USA 277) - Visible Passes

Search period start: 21 October 2017 00:00
Search period end: 31 October 2017 00:00
Orbit: 404 x 417 km, 43.0° (Epoch: 07 September)

Date Brightness Start Highest point End Pass type
(mag) Time Alt. Az. Time Alt. Az. Time Alt. Az.
21 Oct ? 19:03:27 10° W 19:06:33 34° SSW 19:09:37 10° SE visible
22 Oct ? 19:50:29 10° WSW 19:52:21 14° SSW 19:54:14 10° S visible
23 Oct ? 18:58:57 10° WSW 19:01:27 19° SSW 19:03:58 10° SSE visible
